Regional Weather Roundup
Issued by NWS

Home | Current Version | Previous Version | Text Only | Print | Product List | Glossary Off
Versions: 1 2 3 4 5 6 7 8 9 10 11 12 13 14 15 16 17 18 19 20 21 22 23 24 25 26 27 28 29 30 31 32 33 34 35 36 37 38 39 40 41 42 43 44 45 46 47 48 49 50

487
ASUS43 KMPX 110201
RWRMN
WEATHER ROUNDUP FOR MINNESOTA
NATIONAL WEATHER SERVICE TWIN CITIES/CHANHASSEN MN
800 PM CST WED FEB 10 2016


NOTE: "FAIR" INDICATES FEW OR NO CLOUDS BELOW 12,000 FEET WITH NO
SIGNIFICANT WEATHER AND/OR OBSTRUCTIONS TO VISIBILITY. N/A MEANS
CURRENT SKY AND/OR WEATHER CONDITIONS ARE NOT AVAILABLE.

MNZ060>063-068>070-110300-
   Twin Cities Metro

CITY           SKY/WX    TMP DP  RH WIND       PRES   REMARKS
TWIN CITIES    CLOUDY    11  -3  53 N8        30.23R WCI  -1
ST PAUL        CLOUDY    11  -2  56 NE7       30.25R WCI   0
CRYSTAL        CLOUDY    11  -4  51 N5        30.22R WCI   3
LAKEVILLE      CLOUDY     9  -2  61 NE3       30.21R
EDEN PRAIRIE   CLOUDY    12  -3  51 N7        30.21R WCI   1
SOUTH ST PAUL  CLOUDY    11  -3  53 N5        30.23R WCI   3
LAKE ELMO      CLOUDY    10   0  61 N6        30.22R WCI   1
$$
MNZ001>005-007-008-013>017-022>024-027-028-110300-
   Northwest Minnesota

CITY           SKY/WX    TMP DP  RH WIND       PRES   REMARKS
BEMIDJI        PTCLDY     1  -8  68 CALM      30.21S
HALLOCK        PTCLDY     1  -6  71 N5        30.30S WCI  -8
ROSEAU         CLOUDY    -6 -13  71 S3        30.26F
WARROAD        CLOUDY    -6 -13  71 CALM      30.26S
THIEF RVR FALL CLEAR      3  -8  60 N8        30.28R WCI -10
CROOKSTON      PTCLDY     9   0  66 NE5       30.30R WCI   0
FOSSTON        CLOUDY     1  -8  66 CALM      30.24S
DETROIT LAKES  CLOUDY    10   3  72 CALM      30.21S
MOORHEAD       CLOUDY     9   3  78 N7        30.27S WCI  -3
PARK RAPIDS    CLOUDY     8  -5  55 N7        30.20R WCI  -3
MAHNOMEN       CLOUDY     5  -2  73 NE6       30.23R WCI  -6
$$
MNZ006-009>011-018-025>026-110300-
   North Central Minnesota

CITY           SKY/WX    TMP DP  RH WIND       PRES   REMARKS
BAUDETTE       CLOUDY   -12 -20  67 CALM      30.23F
FLAG ISLAND    CLOUDY    -8 -13  77 SW5       30.25F WCI -19
INTL FALLS     CLOUDY   -16 -22  74 W3        30.22S
WASKISH        CLOUDY    -4 -11  71 N3        30.26R
LONGVILLE      CLOUDY     3  -8  60 N3        30.21R
GRAND RAPIDS   CLEAR      0  -9  65 N6        30.19R WCI -12
CRANE LAKE     CLEAR    -17 -20  83 S1        30.24R
ORR            CLOUDY    -9 -15  77 CALM      30.18R
COOK           CLEAR     -9 -15  77 CALM      30.21R
WALKER         CLOUDY     4  -6  63 N5        30.21S WCI  -6
$$
MNZ012-019>021-037-110300-
   Northeast Minnesota

CITY           SKY/WX    TMP DP  RH WIND       PRES   REMARKS
DULUTH         CLOUDY     2  -9  60 N14       30.15R WCI -16
ELY            CLEAR     -8 -11  84 W5        30.17R WCI -19
HIBBING        CLEAR     -8 -13  78 N6        30.19R WCI -21
EVELETH        CLEAR     -6 -11  77 NW5       30.20R WCI -17
DULUTH HARBOR  PTCLDY    10  -4  52 N12       30.24R WCI  -4
TWO HARBORS    PTCLDY     3  -8  60 CALM      30.16R
SILVER BAY     CLEAR      1  -8  66 NW3       30.15R
GRAND MARAIS     N/A      3  -8  60 VRB3      30.17F
G MARAIS ARPRT CLEAR     -6 -13  71 NW15G22   30.05S WCI -27
$$
MNZ029>031-032-039>041-046>048-054>057-064-110300-
   West Central Minnesota

CITY           SKY/WX    TMP DP  RH WIND       PRES   REMARKS
FERGUS FALLS   CLOUDY    10   1  67 CALM      30.26S
WHEATON        CLOUDY    12   7  79 W3        30.27S
MORRIS         CLOUDY    12   3  67 NW5       30.22R WCI   4
ALEXANDRIA     CLOUDY    11  -3  53 N5        30.20R WCI   3
ELBOW LAKE     MOCLDY    11   1  62 E6        30.23R WCI   2
WADENA         CLOUDY     9  -2  61 NE3       30.20R
GLENWOOD       CLOUDY    10   0  61 N5        30.21R WCI   2
APPLETON       CLOUDY    14   7  73 N6        30.24R WCI   5
BENSON         CLOUDY    12   1  62 CALM      30.23R
ORTONVILLE     CLOUDY    12   5  73 N6        30.23S WCI   3
MADISON        CLOUDY    14   7  73 N6        30.24R WCI   5
WILLMAR        CLOUDY    12   3  67 N9        30.23R WCI   0
$$
MNZ033>034-036-042>043-049>051-058-059-110300-
   Central Minnesota

CITY           SKY/WX    TMP DP  RH WIND       PRES   REMARKS
ST CLOUD       CLOUDY    11  -4  51 N6        30.21R WCI   1
SAUK CENTRE    CLOUDY    11  -1  59 CALM      30.21R
PAYNESVILLE    CLOUDY    10  -1  59 CALM      30.22R
AITKIN         CLOUDY     9  -9  43 N5        30.20R WCI   0
PINE RIVER     CLOUDY     7  -6  56 CALM      30.24R
BRAINERD       CLOUDY     7  -4  60 N9        30.21R WCI  -7
STAPLES        CLOUDY     9  -6  52 N3        30.21R
LONG PRAIRIE   CLOUDY    10  -2  56 N6        30.20R WCI   1
LITTLE FALLS   CLOUDY    10  -6  48 N3        30.22R
LITCHFIELD     CLOUDY    12   1  62 N6        30.22R WCI   3
BUFFALO        CLOUDY    11  -4  50 N3        30.23R
MAPLE LAKE     CLOUDY    12   1  60 CALM      30.23R
$$
MNZ037-044-045-052-053-110300-
   East Central Minnesota

CITY           SKY/WX    TMP DP  RH WIND       PRES   REMARKS
PRINCETON      CLOUDY    10  -2  56 N6        30.22R WCI   1
MORA           CLOUDY     9  -2  61 NW5       30.23R WCI   0
CAMBRIDGE      CLOUDY    10   0  61 CALM      30.21R
RUSH CITY      CLOUDY     7  -2  66 NW3       30.22R
MOOSE LAKE     CLOUDY     9  -9  43 N6        30.19R WCI  -1
HINCKLEY       FAIR       9  -6  52 NW5       30.21R WCI   0
CLOQUET        CLOUDY     3  -9  55 NW12      30.17R WCI -13
MCGREGOR       CLOUDY     7  -6  56 NW5       30.21R WCI  -2
$$
MNZ071>073-080-081-089-090-097-098-110300-
   Southwest Minnesota

CITY           SKY/WX    TMP DP  RH WIND       PRES   REMARKS
MONTEVIDEO     CLOUDY    12   7  79 N5        30.25R WCI   4
GRANITE FALLS  CLOUDY    16   8  71 N5        30.24R WCI   9
CANBY          CLOUDY    15  11  82 N3        30.24R
MARSHALL       CLOUDY    12   6  77 N3        30.22R
REDWOOD FALLS  CLOUDY    13   3  64 N3        30.23R
OLIVIA         CLOUDY    16   5  62 N6        30.22R WCI   7
PIPESTONE      CLOUDY    12   3  67 E5        30.15R WCI   4
WINDOM         CLOUDY    10   5  79 CALM      30.18R
WORTHINGTON    CLOUDY    10   3  72 NE12      30.16R WCI  -4
JACKSON        CLOUDY    12   3  67 N5        30.18R WCI   4
TRACY          CLOUDY    13   6  76 N3        30.21R
SLAYTON        CLOUDY    10   6  84 NE7       30.18R WCI  -2
$$
MNZ065>067-074>077-082>085-091>093-110300-
   South Central Minnesota

CITY           SKY/WX    TMP DP  RH WIND       PRES   REMARKS
MANKATO        CLOUDY    12   0  57 N6        30.20R WCI   3
NEW ULM        CLOUDY    12   1  62 N3        30.21R
ST JAMES       CLOUDY     9   3  78 NW3       30.22R
FAIRMONT       CLOUDY     5  -2  72 N3        30.17R
GLENCOE        CLOUDY    13   3  64 N3        30.22R
FARIBAULT        N/A      9  -2  61 CALM      30.21R
OWATONNA       CLOUDY     9  -2  61 N6        30.19R WCI  -1
WASECA         CLOUDY    12   3  67 NE5       30.21R WCI   4
ALBERT LEA     CLOUDY    10  -2  56 N7        30.17R WCI   0
$$
MNZ078>079-086>088-094>096-110300-
   Southeast Minnesota

CITY           SKY/WX    TMP DP  RH WIND       PRES   REMARKS
ROCHESTER      CLOUDY     6  -3  66 N8        30.16R WCI  -7
RED WING       CLOUDY     9  -4  56 CALM      30.22R
STANTON        CLOUDY    10  -1  63 CALM      30.20R
DODGE CENTER   CLOUDY     7  -4  61 N8        30.16R WCI  -6
WINONA         PTCLDY    10   1  67 NW3       30.22R
AUSTIN         CLOUDY     7   0  72 N5        30.17R WCI  -2
PRESTON        CLOUDY     5  -4  66 N5        30.16R WCI  -4
$$
ABBREVIATIONS USED IN REMARKS
   TC - TEMPERATURES IN CELSIUS
  WCI - WIND CHILL INDEX
   HX - HEAT INDEX
  VSB - VISIBILITY
$$




USA.gov is the U.S. government's official web portal to all federal, state and local government web resources and services.